This demonstration page uses our WeatherBlox Daily Observations layout. Learn more.

Left ArrowRight Arrow

39.12711, -84.51439

Hourly Observations for September 12, 2022

Temp ( °F °C ) Dew Point ( °F °C ) Humidity (%) Winds ( mph kmh ) Pressure ( in mb ) Visibility ( mi km ) Precip ( " mm )
12:13 am 00:13 Cloudy 69 20.6 66 18.9 90 90 W 10 17 29.91 1013 10 16 0.00 0.00
12:29 am 00:29 Cloudy 69 20.6 66 18.9 90 90 W 10 17 29.92 1013 10 16 0.00 0.00
12:53 am 00:53 Cloudy 69 20.6 65 18.3 87 87 W 12 19 29.92 1013 10 16 0.00 0.00
2:39 am 02:39 Cloudy 66 18.9 63 17.2 90 90 W 6 9 29.90 1013 10 16 0.00 0.00
2:53 am 02:53 Cloudy 66 18.9 62 16.7 87 87 W 5 7 29.90 1013 10 16 0.00 0.00
3:53 am 03:53 Cloudy 66 18.9 62 16.7 87 87 W 8 13 29.89 1012 10 16 0.00 0.00
4:04 am 04:04 Cloudy 66 18.9 61 16.1 84 84 W 8 13 29.90 1013 10 16 0.00 0.00
4:53 am 04:53 Cloudy 65 18.3 61 16.1 87 87 W 10 17 29.89 1012 10 16 0.00 0.00
5:04 am 05:04 Cloudy 65 18.3 61 16.1 87 87 W 8 13 29.90 1013 10 16 0.00 0.00
5:19 am 05:19 Cloudy 65 18.3 60 15.6 84 84 W 10 17 29.90 1013 10 16 0.00 0.00
5:53 am 05:53 Cloudy 64 17.8 58 14.4 80 80 W 10 17 29.91 1013 10 16 0.00 0.00
6:35 am 06:35 Cloudy 63 17.2 58 14.4 84 84 WNW 8 13 29.91 1013 10 16 0.00 0.00
6:53 am 06:53 Cloudy 63 17.2 57 13.9 81 81 W 8 13 29.92 1013 10 16 0.00 0.00
7:23 am 07:23 Cloudy 63 17.2 57 13.9 81 81 WSW 10 17 29.92 1013 10 16 0.00 0.00
7:53 am 07:53 Cloudy 63 17.2 56 13.3 78 78 WSW 10 17 29.93 1014 8 13 0.00 0.00
8:53 am 08:53 Cloudy 63 17.2 56 13.3 78 78 W 10 17 29.94 1014 10 16 0.00 0.00
9:53 am 09:53 Mostly Cloudy 64 17.8 54 12.2 70 70 W 15 24 29.95 1014 10 16 0.00 0.00
10:53 am 10:53 Partly Cloudy 67 19.4 53 11.7 61 61 WNW 10 17 29.96 1015 10 16 0.00 0.00
11:53 am 11:53 Mostly Sunny 68 20 52 11.1 57 57 W 10 17 29.95 1014 10 16 0.00 0.00
12:53 pm 12:53 Mostly Sunny 70 21.1 50 10 49 49 W 13 20 29.93 1014 10 16 0.00 0.00
1:53 pm 13:53 Sunny 71 21.7 50 10 47 47 WSW 8 13 29.92 1013 10 16 0.00 0.00
2:53 pm 14:53 Mostly Cloudy 71 21.7 51 10.6 49 49 W 13 20 29.90 1013 10 16 0.00 0.00
3:53 pm 15:53 Partly Cloudy 72 22.2 52 11.1 49 49 WSW 13 20 29.87 1012 10 16 0.00 0.00
4:53 pm 16:53 Partly Cloudy 72 22.2 50 10 46 46 SSW 9 15 29.85 1011 10 16 0.00 0.00
5:53 pm 17:53 Cloudy 69 20.6 50 10 51 51 SSW 12 19 29.85 1011 10 16 0.00 0.00
6:53 pm 18:53 Cloudy 68 20 51 10.6 55 55 SSW 9 15 29.85 1011 10 16 0.00 0.00
7:53 pm 19:53 Cloudy 66 18.9 53 11.7 63 63 SSW 8 13 29.85 1011 10 16 0.00 0.00
8:53 pm 20:53 Cloudy with Light Rain 64 17.8 56 13.3 75 75 S 6 9 29.85 1011 10 16 0.01 0.13
9:53 pm 21:53 Cloudy with Light Rain 64 17.8 56 13.3 75 75 SW 8 13 29.87 1012 10 16 0.01 0.13
10:53 pm 22:53 Mostly Clear 61 16.1 56 13.3 83 83 S 10 17 29.86 1011 10 16 0.01 0.13
11:53 pm 23:53 Cloudy 62 16.7 57 13.9 84 84 SSW 7 11 29.84 1011 10 16 0.00 0.00

Powered by AerisWeather